FIN5Y EFHK-EETN

Flight info

Callsign FIN5Y
Flight time 0h 18m
Altitude 9000
Route RENKU
Aircraft AT75/M-SDFGIRY/S

Departure

Time 2026-05-07 17:31
Airport Helsinki Vantaa Airport (EFHK)

Arrival

Time 2026-05-07 17:49
Airport Lennart Meri Tallinn Airport (EETN)
Time Latitude Longitude Altitude Speed Heading
2026-05-07 17:00 60.31478 24.97395 160 ft 0 kts 242°
2026-05-07 17:26 60.31493 24.97452 160 ft 9 kts 242°
2026-05-07 17:26 60.31518 24.97548 159 ft 2 kts 242°
2026-05-07 17:26 60.31549 24.97480 160 ft 11 kts 332°
2026-05-07 17:26 60.31622 24.97406 160 ft 13 kts 333°
2026-05-07 17:27 60.31708 24.97317 160 ft 14 kts 333°
2026-05-07 17:27 60.31801 24.97221 160 ft 13 kts 333°
2026-05-07 17:27 60.31889 24.97130 160 ft 16 kts 334°
2026-05-07 17:27 60.31979 24.97036 160 ft 11 kts 332°
2026-05-07 17:28 60.32062 24.96947 160 ft 12 kts 331°
2026-05-07 17:28 60.32148 24.96847 160 ft 14 kts 330°
2026-05-07 17:28 60.32241 24.96738 162 ft 16 kts 329°
2026-05-07 17:28 60.32325 24.96641 165 ft 9 kts 330°
2026-05-07 17:29 60.32339 24.96626 166 ft 0 kts 329°
2026-05-07 17:29 60.32363 24.96599 168 ft 10 kts 331°
2026-05-07 17:29 60.32411 24.96505 172 ft 8 kts 270°
2026-05-07 17:29 60.32387 24.96406 174 ft 0 kts 225°
2026-05-07 17:30 60.32239 24.96082 173 ft 65 kts 228°
2026-05-07 17:30 60.31797 24.95109 175 ft 119 kts 228°
2026-05-07 17:30 60.31219 24.93806 557 ft 126 kts 225°
2026-05-07 17:31 60.30545 24.92599 1082 ft 133 kts 214°
2026-05-07 17:31 60.29719 24.91605 1576 ft 140 kts 212°
2026-05-07 17:31 60.28806 24.90584 1805 ft 157 kts 210°
2026-05-07 17:31 60.27829 24.89542 2205 ft 163 kts 210°
2026-05-07 17:32 60.26781 24.88457 2514 ft 172 kts 211°
2026-05-07 17:32 60.25755 24.87239 2945 ft 175 kts 213°
2026-05-07 17:32 60.24715 24.85949 3381 ft 177 kts 214°
2026-05-07 17:32 60.24005 24.85064 3659 ft 179 kts 214°
2026-05-07 17:33 60.22511 24.83653 4176 ft 183 kts 195°
2026-05-07 17:33 60.21254 24.83116 4560 ft 186 kts 193°
2026-05-07 17:33 60.19988 24.82530 4962 ft 188 kts 196°
2026-05-07 17:33 60.18722 24.81850 5372 ft 189 kts 197°
2026-05-07 17:34 60.17861 24.81391 5672 ft 190 kts 196°
2026-05-07 17:34 60.16586 24.80704 6102 ft 191 kts 196°
2026-05-07 17:34 60.15300 24.80014 6509 ft 192 kts 196°
2026-05-07 17:34 60.14006 24.79326 6904 ft 193 kts 197°
2026-05-07 17:35 60.12708 24.78640 7298 ft 193 kts 197°
2026-05-07 17:35 60.11409 24.77967 7714 ft 193 kts 196°
2026-05-07 17:35 60.10112 24.77301 8126 ft 192 kts 197°
2026-05-07 17:35 60.08835 24.76646 8530 ft 192 kts 197°
2026-05-07 17:36 60.07536 24.75983 8912 ft 194 kts 197°
2026-05-07 17:36 60.06174 24.75284 9014 ft 209 kts 197°
2026-05-07 17:36 60.04713 24.74536 9057 ft 224 kts 197°
2026-05-07 17:36 60.03162 24.73747 9073 ft 236 kts 197°
2026-05-07 17:37 60.01541 24.72923 9084 ft 245 kts 197°
2026-05-07 17:37 59.99870 24.72076 9087 ft 251 kts 197°
2026-05-07 17:37 59.98159 24.71211 9089 ft 256 kts 197°
2026-05-07 17:37 59.96419 24.70346 9091 ft 259 kts 196°
2026-05-07 17:38 59.94657 24.69480 9091 ft 262 kts 196°
2026-05-07 17:38 59.92881 24.68613 9093 ft 264 kts 196°
2026-05-07 17:38 59.91095 24.67747 9086 ft 265 kts 196°
2026-05-07 17:38 59.89302 24.66879 9086 ft 266 kts 196°
2026-05-07 17:39 59.87503 24.66009 9088 ft 266 kts 196°
2026-05-07 17:39 59.85701 24.65136 9087 ft 266 kts 196°
2026-05-07 17:39 59.83912 24.64178 9088 ft 267 kts 198°
2026-05-07 17:39 59.82129 24.63196 9093 ft 266 kts 198°
2026-05-07 17:40 59.80343 24.62238 9084 ft 266 kts 197°
2026-05-07 17:40 59.78554 24.61327 9070 ft 266 kts 197°
2026-05-07 17:40 59.76763 24.60435 9083 ft 265 kts 195°
2026-05-07 17:40 59.74942 24.59847 9088 ft 265 kts 189°
2026-05-07 17:41 59.73090 24.59451 8914 ft 271 kts 188°
2026-05-07 17:41 59.71193 24.59028 8627 ft 279 kts 189°
2026-05-07 17:41 59.69288 24.58504 8353 ft 268 kts 190°
2026-05-07 17:41 59.67464 24.57971 7955 ft 263 kts 189°
2026-05-07 17:42 59.65661 24.57450 7560 ft 261 kts 189°
2026-05-07 17:42 59.63871 24.56940 7174 ft 259 kts 189°
2026-05-07 17:42 59.62093 24.56431 6794 ft 258 kts 188°
2026-05-07 17:42 59.60322 24.55924 6410 ft 257 kts 188°
2026-05-07 17:43 59.58553 24.55422 6008 ft 256 kts 188°
2026-05-07 17:43 59.56790 24.54918 5616 ft 256 kts 188°
2026-05-07 17:43 59.55033 24.54414 5223 ft 255 kts 188°
2026-05-07 17:43 59.53280 24.53914 4824 ft 254 kts 188°
2026-05-07 17:44 59.51536 24.53417 4423 ft 253 kts 188°
2026-05-07 17:44 59.49798 24.52920 4039 ft 252 kts 188°
2026-05-07 17:44 59.48071 24.52428 3653 ft 250 kts 188°
2026-05-07 17:44 59.46355 24.51937 3261 ft 247 kts 188°
2026-05-07 17:45 59.44725 24.51467 2859 ft 226 kts 188°
2026-05-07 17:45 59.43228 24.51200 2503 ft 205 kts 174°
2026-05-07 17:45 59.42051 24.52303 2325 ft 183 kts 129°
2026-05-07 17:45 59.41391 24.54285 2244 ft 172 kts 108°
2026-05-07 17:46 59.41326 24.56616 2234 ft 174 kts 84°
2026-05-07 17:46 59.41396 24.59016 2227 ft 176 kts 86°
2026-05-07 17:46 59.41417 24.61351 2158 ft 169 kts 88°
2026-05-07 17:46 59.41394 24.63621 1965 ft 160 kts 89°
2026-05-07 17:47 59.41367 24.65751 1751 ft 151 kts 88°
2026-05-07 17:47 59.41360 24.67734 1531 ft 140 kts 87°
2026-05-07 17:47 59.41362 24.69577 1353 ft 130 kts 86°
2026-05-07 17:47 59.41367 24.71320 1177 ft 128 kts 87°
2026-05-07 17:48 59.41362 24.73084 991 ft 130 kts 88°
2026-05-07 17:48 59.41349 24.74874 791 ft 132 kts 88°
2026-05-07 17:48 59.41361 24.76658 605 ft 132 kts 87°
2026-05-07 17:48 59.41346 24.78447 436 ft 131 kts 86°
2026-05-07 17:49 59.41334 24.80220 294 ft 130 kts 87°
2026-05-07 17:49 59.41326 24.81948 164 ft 118 kts 86°
2026-05-07 17:49 59.41326 24.83208 160 ft 68 kts 90°
2026-05-07 17:49 59.41323 24.84011 158 ft 47 kts 90°
2026-05-07 17:50 59.41323 24.84542 156 ft 34 kts 89°
2026-05-07 17:50 59.41334 24.84934 158 ft 24 kts 69°
2026-05-07 17:50 59.41443 24.85008 158 ft 16 kts 357°
2026-05-07 17:50 59.41494 24.84861 158 ft 14 kts 270°
2026-05-07 17:51 59.41496 24.84664 158 ft 14 kts 270°
2026-05-07 17:51 59.41497 24.84465 158 ft 15 kts 271°
2026-05-07 17:51 59.41498 24.84267 158 ft 15 kts 271°
2026-05-07 17:51 59.41499 24.84068 158 ft 15 kts 269°
2026-05-07 17:52 59.41498 24.83868 158 ft 15 kts 270°
2026-05-07 17:52 59.41498 24.83667 158 ft 15 kts 270°
2026-05-07 17:52 59.41499 24.83466 158 ft 15 kts 270°
2026-05-07 17:52 59.41500 24.83265 158 ft 15 kts 270°
2026-05-07 17:53 59.41500 24.83063 158 ft 15 kts 270°
2026-05-07 17:53 59.41500 24.82864 158 ft 15 kts 271°
2026-05-07 17:53 59.41501 24.82662 158 ft 15 kts 270°
2026-05-07 17:53 59.41501 24.82461 158 ft 15 kts 270°
2026-05-07 17:54 59.41501 24.82258 158 ft 15 kts 270°
2026-05-07 17:54 59.41502 24.82057 158 ft 15 kts 270°
2026-05-07 17:54 59.41503 24.81855 158 ft 15 kts 270°
2026-05-07 17:54 59.41503 24.81653 158 ft 15 kts 270°
2026-05-07 17:55 59.41503 24.81449 158 ft 15 kts 270°
2026-05-07 17:55 59.41504 24.81240 158 ft 15 kts 270°
2026-05-07 17:55 59.41505 24.81029 158 ft 16 kts 271°
2026-05-07 17:55 59.41506 24.80816 158 ft 16 kts 270°
2026-05-07 17:56 59.41508 24.80602 158 ft 16 kts 275°
2026-05-07 17:56 59.41577 24.80509 158 ft 12 kts 359°
2026-05-07 17:56 59.41663 24.80511 158 ft 12 kts 360°
2026-05-07 17:56 59.41731 24.80441 158 ft 10 kts 300°
2026-05-07 17:57 59.41747 24.80293 158 ft 13 kts 280°
2026-05-07 17:57 59.41740 24.80197 158 ft 9 kts 223°
2026-05-07 17:57 59.41699 24.80193 158 ft 5 kts 181°
2026-05-07 17:57 59.41690 24.80193 158 ft 0 kts 179°